This demonstration page uses our WeatherBlox Daily Observations layout. Learn more.

38.89511, -77.03637

Hourly Observations for June 17, 2018

Temp ( °F °C ) Dew Point ( °F °C ) Humidity (%) Winds ( mph kmh ) Pressure ( in mb ) Visibility ( mi km ) Precip ( " mm )
12:52 am 00:52 Mostly Cloudy 74 23.3 66 18.9 76 76 SSE 3 6 30.06 1018 10 16.09344 0 0
1:52 am 01:52 Mostly Cloudy 74 23.3 65 18.3 74 74 SSW 7 11 30.03 1017 10 16.09344 0 0
2:52 am 02:52 Cloudy 74 23.3 65 18.3 74 74 S 5 7 30.03 1017 10 16.09344 0 0
3:52 am 03:52 Cloudy 74 23.3 66 18.9 76 76 Calm 30.03 1017 10 16.09344 0 0
4:52 am 04:52 Cloudy 74 23.3 65 18.3 74 74 Calm 30 1016 10 16.09344 0 0
5:52 am 05:52 Mostly Cloudy 74 23.3 64 17.8 71 71 Calm 30.03 1017 10 16.09344 0 0
6:52 am 06:52 Mostly Cloudy 74 23.3 64 17.8 71 71 Calm 30.03 1017 10 16.09344 0 0
7:52 am 07:52 Mostly Cloudy 76 24.4 65 18.3 69 69 Calm 30.06 1018 10 16.09344 0 0
8:52 am 08:52 Mostly Cloudy 79 26.1 65 18.3 62 62 Calm 30.09 1019 10 16.09344 0 0
9:52 am 09:52 Mostly Cloudy 81 27.2 65 18.3 58 58 Calm 30.09 1019 10 16.09344 0 0
10:52 am 10:52 Mostly Cloudy 85 29.4 67 19.4 55 55 SE 3 6 30.09 1019 10 16.09344 0 0
11:52 am 11:52 Mostly Cloudy 86 30 66 18.9 51 51 S 5 7 30.06 1018 10 16.09344 0 0
12:52 pm 12:52 Mostly Cloudy 89 31.7 66 18.9 47 47 SSW 6 9 30.06 1018 10 16.09344 0 0
1:52 pm 13:52 Mostly Cloudy 87 30.6 68 20 53 53 S 6 9 30.06 1018 10 16.09344 0 0
2:52 pm 14:52 Mostly Cloudy 87 30.6 66 18.9 50 50 SSW 3 6 30.03 1017 10 16.09344 0 0
3:52 pm 15:52 Mostly Cloudy 87 30.6 66 18.9 50 50 S 3 6 30.03 1017 10 16.09344 0 0
4:52 pm 16:52 Mostly Cloudy 87 30.6 69 20.6 55 55 SSE 6 9 30.03 1017 10 16.09344 0 0
5:52 pm 17:52 Mostly Cloudy 87 30.6 70 21.1 57 57 S 5 7 30.03 1017 10 16.09344 0 0
6:52 pm 18:52 Mostly Cloudy 86 30 69 20.6 57 57 S 7 11 30.03 1017 10 16.09344 0 0
7:52 pm 19:52 Mostly Cloudy 84 28.9 69 20.6 61 61 S 6 9 30.03 1017 10 16.09344 0 0
8:52 pm 20:52 Mostly Cloudy 84 28.9 66 18.9 55 55 SSE 7 11 30.03 1017 10 16.09344 0 0
9:52 pm 21:52 Cloudy 82 27.8 66 18.9 58 58 S 5 7 30.06 1018 10 16.09344 0 0
10:52 pm 22:52 Partly Cloudy 80 26.7 66 18.9 62 62 S 8 13 30.06 1018 10 16.09344 0 0
11:52 pm 23:52 Mostly Cloudy 79 26.1 68 20 69 69 S 8 13 30.06 1018 10 16.09344 0 0

Powered by AerisWeather